Location: Nianha
(10.8000°N, 4.6333°W)
Time: 11:04:21
(UTC+00:00)

STARLINK-50 - Pass Details

Date: 14 November 2019
Orbit: 529 x 530 km, 53.0° (Epoch: 24 January)

Event Time Altitude Azimuth Distance (km) Brightness Sun altitude
Exits shadow 03:17:26 - 97° (E) 2,407 7.7 -42.5°
Enters shadow 04:30:59 -39° 217° (SW) 8,774 9.7 -25.0°
Maximum altitude 04:53:39 74° 305° (NW) 529 3.3 -19.6°
